www.pogodaiklimat.ru

Погода и климат >> Архив погоды >> Антарктида >> Captain Arturo Prat Base


ПОГОДА на Captain Arturo Prat Base

  • Прогноз погоды на Captain Arturo Prat Base
  • Монитор погоды на Captain Arturo Prat Base

АРХИВ ПОГОДЫ на Captain Arturo Prat Base

Время (UTC), дата Ветер
(напр.,м/с)
 
Видим.   Явления Облачность Т
(С)
Тd
(С)
f
(%)
Тe
(С)
Тes
(С)
Комфортность P
(гПа)
Po
(гПа)
Тmin
(С)
Tmax
(С)
R
(мм)
R24
(мм)
S
(см)
09 13.09 ЮЗ 9 4000 м слаб. снег 10/10 120 м
[Sc]
-2.9 -4.1 91 -12 -12 971.0 970.4
12 13.09 ЮЗ 8 10 км {снег} 9/9 300 м
[Sc]
-2.8 -3.8 93 -11 -11 971.2 970.6 -4.9 1 130
15 13.09 ЮЗ 12 4000 м слаб. снег 10/10 180 м
[Sc]
-4.3 -5.3 93 -15 -15 975.1 974.5
18 13.09 ЮЗ 13 10 км {снег} 9/9 300 м
[Sc]
-6.8 -8.8 86 -18 -18 979.1 978.5 0.0
21 13.09 ЮЗ 13 10 км ясно -6.8 -9.7 80 -18 -18 983.9 983.3
00 14.09 ЮЗ 6 10 км 6/6 600 м
[Sc]
-8.3 -11.6 77 -16 -16 989.0 988.4 -2.6
03 14.09 ЮЗ 5 10 км 3/3 600 м
[Sc]
-9.0 -12.8 74 -17 -17 991.0 990.4
06 14.09 ЮВ 2 10 км 5/5 500 м
[Sc]
-10.3 -13.6 77 -15 -15 993.0 992.4 0.0
09 14.09 В 2 10 км 5/5 500 м
[Sc]
-11.4 -14.6 77 -16 -16 995.0 994.4
12 14.09 В 3 10 км ясно -12.1 -15.5 76 -18 -17 996.3 995.6 -13.5 130
15 14.09 В 2 10 км ясно -5.8 -11.4 65 -9 -5 997.9 997.3
18 14.09 штиль 0 10 км ясно -1.8 -10.0 53 -2 +2 998.2 997.6
21 14.09 ЮВ 2 10 км ясно -6.8 -12.3 65 -11 -11 998.2 997.6
00 15.09 ЮВ 2 10 км ясно -9.8 -14.0 71 -13 -13 999.0 998.4 -1.4
03 15.09 В 2 10 км ясно -11.4 -15.8 70 -15 -15 997.9 997.2
06 15.09 ЮВ 2 10 км ясно -8.5 -14.7 61 -12 -12 991.5 990.9
09 15.09 В 2 10 км ясно -11.6 -16.2 69 -16 -16 990.0 989.4
12 15.09 В 2 10 км ясно -11.1 -16.8 63 -15 -14 993.0 992.4 -12.1 -7.9 130
15 15.09 СВ 2 10 км ясно -5.3 -12.1 59 -8 -4 993.2 992.6
18 15.09 С 2 10 км ясно -5.0 -10.2 67 -9 -6 994.0 993.4
21 15.09 В 7 10 км ясно -7.5 -11.9 71 -16 -16 994.9 994.3
00 16.09 В 3 10 км ясно -8.9 -12.2 77 -14 -14 997.0 996.4 -3.8
03 16.09 штиль 0 10 км ясно -7.4 -12.5 67 -8 -8 998.8 998.2
06 16.09 ЮВ 3 10 км ясно -5.8 -14.0 52 -11 -11 1000.0 999.4
09 16.09 В 2 10 км ясно -7.3 -13.0 64 -11 -11 1001.9 1001.3
12 16.09 ЮВ 3 10 км ясно -6.3 -13.1 59 -11 -10 1002.8 1002.2 -9.8 130
15 16.09 штиль 0 10 км 3/0
[Ci fib]
-2.0 -8.8 60 -3 +3 1003.2 1002.6
18 16.09 штиль 0 10 км ясно -1.8 -7.2 67 -3 +2 1003.8 1003.2
21 16.09 штиль 0 10 км 3/0
[Ci fib]
-1.8 -8.0 63 -2 -2 1003.6 1003.0
00 17.09 ЮЗ 3 10 км ясно -6.5 -8.2 88 -12 -12 1002.6 1002.0 -7.7 +2.0
03 17.09 штиль 0 10 км 5/0
[Cs]
-6.9 -8.3 90 -8 -8 1001.1 1000.5
06 17.09 В 2 10 км 8/0
[Cs]
-8.0 -9.6 88 -12 -12 1000.4 999.8
09 17.09 штиль 0 10 км 8/0
[Cs]
-6.8 -15.6 50 -7 -7 999.1 998.5
12 17.09 ЮЗ 3 10 км 4/0
[Ci fib]
-5.4 -15.3 46 -10 -9 998.0 997.4 -9.6 130
15 17.09 З 4 10 км 4/0
[Ci fib]
-4.3 -9.7 66 -10 -8 997.0 996.4
18 17.09 З 3 10 км 3/0
[Ci]
-2.9 -6.6 76 -7 -5 995.0 994.4
21 17.09 ЮЗ 2 10 км 10/10 500 м
[Sc]
-3.5 -5.7 85 -8 -8 993.2 992.6
00 18.09 Ю 3 10 км 8/8 450 м
[Sc]
-4.0 -5.7 88 -9 -9 992.0 991.4 -2.0
03 18.09 штиль 0 10 км 5/0
[Cs]
-6.1 -7.5 90 -7 -7 990.0 989.4
06 18.09 СЗ 5 10 км 10/10 600 м
[Sc]
-4.2 -5.9 88 -11 -11 988.5 987.9
09 18.09 СЗ 5 10 км 10/10 600 м
[Sc]
-3.6 -4.4 94 -10 -10 987.3 986.7
12 18.09 С 7 10 км 10/10 450 м
[Sc]
-3.2 -4.3 92 -11 -11 986.0 985.4 -6.8 130
15 18.09 С 7 6000 м слаб. снег 10/10 210 м
[Sc]
-2.2 -2.8 96 -10 -10 984.0 983.4
18 18.09 С 10 2000 м слаб. снег 10/10 150 м
[Sc]
-2.0 -2.4 97 -11 -11 982.2 981.6 1
21 18.09 С 9 2000 м слаб. снег 10/10 120 м
[Sc]
-2.0 -2.0 100 -11 -11 981.8 981.2
00 19.09 СЗ 6 2000 м слаб. снег 10/10 120 м
[Sc]
-1.8 -1.8 100 -9 -9 981.6 981.0 -1.5 0.0
03 19.09 СЗ 4 1000 м слаб. снег 10/10 120 м
[Sc]
-1.7 -1.7 100 -8 -8 981.5 980.9
06 19.09 С 5 2000 м слаб. снег 10/10 120 м
[Sc]
-2.0 -2.0 100 -9 -9 981.5 980.9 1
09 19.09 С 3 2000 м слаб. снег 10/10 120 м
[Sc]
-1.9 -1.9 100 -7 -7 981.5 980.9
12 19.09 С 4 10 км {снег} 10/10 180 м
[Sc]
-2.0 -2.0 100 -8 -8 980.8 980.2 -2.1 0.0 130
15 19.09 С 4 10 км 10/10 210 м
[Sc]
-2.0 -2.0 100 -8 -8 980.0 979.4
18 19.09 С 4 2000 м слаб. снег 10/10 120 м
[Sc]
-1.9 -2.0 99 -8 -8 979.2 978.6 0.0
21 19.09 С 3 4000 м дымка {снег} 10/10 120 м
[St]
-2.3 -2.3 100 -8 -8 978.1 977.5
00 20.09 С 7 2000 м дымка {снег} 10/10 120 м
[St]
-2.4 -2.5 99 -10 -10 977.2 976.6 -1.5 0.0
03 20.09 С 5 10 км 10/10 300 м
[Sc]
-2.8 -3.2 97 -10 -10 975.8 975.2
06 20.09 С 5 10 км 10/10 300 м
[Sc]
-3.2 -4.0 94 -10 -10 973.8 973.2

 

Местоположение метеостанции Captain Arturo Prat Base (Антарктида): широта -62.50 долгота -59.68 высота над уровнем моря 5 м.

В архиве по умолчанию представлена погода на Captain Arturo Prat Base за последнюю неделю. Архивные данные за месяц целиком и за предыдущие месяцы, начиная с января 2011 года, Вы можете получить, выбрав интересующий диапазон дат из раскрывающегося списка и нажав кнопку "Ввод!".


*Определитесь, кто Вы:
робот инопланетянин человек

Внимание! Время в таблицах - всемирное. Для получения местного времени необходимо прибавить поправку, которая равна 0 ч.

Смотрите также архив погоды в соседних городах и на ближайших метеорологических станциях:

Погода на Острове Хуана Карлоса (Антарктида) (40 км)
Погода на Чанчэн (Антарктида) (49 км)
Погода на Frei Chi-Base (Антарктида) (51 км)
Погода на Беллинсгаузене (Антарктида) (51 км)
Погода на Dinamet-Уругвай (Антарктида) (57 км)
Погода на King Sejong (Антарктида) (58 км)
Погода на Carlini Base (Антарктида) (62 км)
Погода на Габриэль де Кастилья (Антарктида) (74 км)
Погода на Бернардо О`Хиггинс (Антарктида) (127 км)
Погода на Эсперансе (Антарктида) (169 км)

Пояснения к столбцам:

Ветер - указаны скорость ветра в м/с - средняя за 10 мин, порывы в срок и между сроками (в фигурных скобках) и направление, откуда дует ветер: С - северный, СВ - северо-восточный, В - восточный, ЮВ - юго-восточный, Ю - южный, ЮЗ - юго-западный, З - западный, СЗ - северо-западный.
Видимость - горизонтальная дальность видимости в метрах или километрах. При видимости от 1 до 10 км при отсутствии осадков обычно наблюдается дымка, при ухудшении видимости до 1 км и менее - туман. В сухую погоду видимость может ухудшаться дымом, пылью или мглою.
Явления - указаны атмосферные явления, наблюдавшиеся в срок или в последний час перед сроком; фигурными скобками обозначены явления, наблюдавшиеся между сроками (за 1-3 часа до срока); квадратными скобками обозначены град или гололедные отложения с указанием их диаметра в мм.
Облачность - указаны через наклонную черту общая и нижняя облачность в баллах и высота нижней границы облаков в метрах; квадратными скобками обозначены формы облаков: Ci - перистые, Cs - перисто-слоистые, Cc - перисто-кучевые, Ac - высококучевые, As - высокослоистые, Sc - слоисто-кучевые, Ns - слоисто-дождевые, Cu - кучевые, Cb - кучево-дождевые. Подробнее классификацию облаков см. в Атласе облаков (PDF).
T - Температура воздуха - температура, измеренная на высоте 2 м над землей.
Td - Температура точки росы - температура, при понижении до которой содержащийся в воздухе водяной пар достигнет насыщения.
f - Относительная влажность воздуха - влажноcть воздуха, измеренная на высоте 2 м над землей.
Te - Эффективная температура - температура, которую ощущает одетый по сезону человек в тени. Характеристика душности погоды. При расчете учитывается влияние влажности воздуха и скорости ветра на теплоощущения человека.
Tes - Эффективная температура на солнце - температура, которую ощущает человек, с поправкой на солнечный нагрев. Характеристика знойности погоды. Зависит от высоты солнца над горизонтом, облачности и скорости ветра. Ночью, в пасмурную погоду, а также при ветре 12 м/с и более поправка равна нулю.
P - Атмосферное давление - приведенное к уровню моря атмосферное давление.
Po - Атмосферное давление - измеренное на уровне метеостанции атмосферное давление.
Tmin - Минимальная температура - минимум температуры воздуха на высоте 2 м над землей.
Tmax - Максимальная температура - максимум температуры воздуха на высоте 2 м над землей.
R - Количество осадков - Количество выпавших осадков за период времени, мм. При наведении курсора мыши на число - период времени, за который выпало указанное количество осадков.
R24 - Количество осадков - Количество выпавших осадков за 24 часа, мм.
S - Снежный покров - Высота снежного покрова, см. При наведении курсора мыши на число - состояние снежного покрова и степень покрытия местности в баллах.